Tracking 29747 objects as of 9-Oct-2024
HD Live streaming from Space Station
objects crossing your sky now

THORAD DELTA 1 DEB

Track THORAD DELTA 1 DEB now!
10-day predictions


NORAD ID: 8174
Int'l Code: 1974-089AQ
Perigee: 1,405.9 km
Apogee: 1,509.5 km
Inclination: 101.9 °
Period: 114.9 minutes
Semi major axis: 7828 km
RCS: 0.0214 m2 (small)
Launch date: November 15, 1974
Source: United States (US)
Launch site: AIR FORCE WESTERN TEST RANGE (AFWTR)

Note: This is SATELLITE DEBRIS
Your satellite tracking list
Your tracking list is empty




NASA's NSSDC Master Catalog

Two Line Element Set (TLE):
1 08174U 74089AQ  24283.41102626  .00000112  00000-0  98000-3 0  9993
2 08174 101.8877 259.7532 0066169  67.2330  86.8067 12.53341144281088
Source of the keplerian elements: AFSPC